Home > Time Zones > World Clock > Weather > Oman > Seeb > Past weeks

Flag Weather past 2 weeks in Seeb, Oman

Now
82 °F

Passing clouds.


Feels Like: 83 °F
Forecast: 76 / 87 °F
Wind: 9 mph from Northwest

Location: International Airport

Current Time: Nov 27, 2014 at 5:47:20 PM

Latest Report: Nov 27, 2014 at 4:50 PM


Visibility: N/A

Pressure: 29.92 "Hg

Humidity: 48%

Dew point: 61 °F

Location of SeebLocation

Historic Weather in Seeb — Graph

°F

Seeb temperature yesterday

Maximum temperature yesterday: 82 °F (at 9:50 AM)
Minimum temperature yesterday: 72 °F (at 6:50 AM)
Average temperature yesterday: 78 °F

Past Weeks' High & Low Weather Summary

 TemperatureHumidityPressure
High88 °F (Nov 27, 11:50 AM)89% (Nov 25, 6:50 AM)30.15 "Hg (Nov 25, 6:50 AM)
Low68 °F (Nov 13, 3:50 AM)31% (Nov 23, 9:50 AM)29.89 "Hg (Nov 23, 1:50 PM)
Average78 °F65%30.00 "Hg
* Reported Nov 12 3:50 PM — Nov 27 3:50 PM, Seeb, Weather by CustomWeather, © 2014

Note: Actual official high and low records may vary slightly from our data, if they occured in-between our weather recording intervals... More about our weather records

Advertising

Seeb weather history for previous 24 hours

 ConditionsComfort  
Time TempWeatherWind HumidityBarometerVisibility
3:50 PM
Nov 27
84 °FPassing clouds.16 mph45%29.89 "HgN/A
2:50 PM86 °FPassing clouds.14 mph46%29.89 "HgN/A
1:50 PM84 °FSunny.8 mph62%29.89 "Hg10 mi
12:50 PM84 °FSunny.9 mph66%29.92 "Hg10 mi
11:50 AM88 °FSunny.6 mph46%29.95 "Hg10 mi
10:50 AM86 °FPassing clouds.5 mph46%29.98 "HgN/A
9:50 AM84 °FPassing clouds.6 mph48%30.01 "HgN/A
8:50 AM81 °FSunny.6 mph54%30.01 "Hg10 mi
7:50 AM79 °FSunny.2 mph51%29.98 "Hg10 mi
6:50 AM73 °FSunny.2 mph57%29.98 "Hg10 mi
5:50 AM73 °FClear.2 mph57%29.95 "Hg10 mi
4:50 AM72 °FClear.1 mph65%29.92 "Hg10 mi
3:50 AM75 °FClear.2 mph47%29.92 "Hg10 mi
2:50 AM75 °FClear.2 mph50%29.92 "Hg10 mi
1:50 AM77 °FClear.2 mph47%29.92 "Hg10 mi
12:50 AM77 °FClear.2 mph51%29.92 "Hg10 mi
11:50 PM
Nov 26
79 °FClear.1 mph51%29.92 "Hg10 mi
10:50 PM79 °FClear.3 mph51%29.92 "Hg6 mi
9:50 PM77 °FClear.3 mph79%29.95 "Hg6 mi
8:50 PM77 °FClear.2 mph83%29.95 "Hg6 mi
7:50 PM77 °FClear.2 mph83%29.95 "Hg6 mi
6:50 PM79 °FClear.2 mph79%29.95 "Hg6 mi
5:50 PM79 °FPassing clouds.3 mph79%29.95 "Hg6 mi
Weather by CustomWeather, © 2014

See weather overviewHow to use our weather pages